Change the Weather History Date:

Sunday, March 4, 2012

  Actual Average Record
Temperature  
Mean Temperature 41 °F 40 °F  
Max Temperature 48 °F 50 °F 80 °F (1923)
Min Temperature 34 °F 30 °F 4 °F (2014)
Degree Days  
Heating Degree Days 24 25  
Month to date heating degree days 69 102  
Since 1 July heating degree days 2973 3697  
Cooling Degree Days 0 0  
Month to date cooling degree days 0 0  
Year to date cooling degree days 0 0  
Moisture  
Dew Point 22 °F    
Average Humidity 46    
Maximum Humidity 57    
Minimum Humidity 34    
Precipitation  
Precipitation 0.00 in 0.11 in 2.71 in (1889)
Month to date precipitation 0.95 0.44  
Year to date precipitation 5.91 6.39  
Snow  
Snow 0.00 in 0.10 in 8.20 in (1909)
Month to date snowfall 0.0 0.5  
Since 1 July snowfall 1.8 18.7  
Snow Depth 0.00 in    
Sea Level Pressure  
Sea Level Pressure 29.75 in    
Wind  
Wind Speed 10 mph (WNW)    
Max Wind Speed 25 mph    
Max Gust Speed 30 mph    
Visibility 10 miles    
Events      
T = Trace of Precipitation, MM = Missing Value Source: NWS Daily Summary

Daily Weather History Graph

Daily Weather History Graph

Search for Another Location

Airport or City:

Trip Planner

Search our weather history database for the weather conditions in past years. The results will help you decide how hot, cold, wet, or windy it might be!

Date:

Astronomy

Mar. 04, 2012 Rise Set
Actual Time 6:34 AM EST 6:02 PM EST
Civil Twilight 6:07 AM EST 6:29 PM EST
Nautical Twilight 5:36 AM EST 7:00 PM EST
Astronomical Twilight 5:05 AM EST 7:31 PM EST
Moon 2:14 PM EST (3/4) 3:51 AM EST (3/4)
Length of Visible Light 12h 22m
Length of Day
11h 28m
Waxing Gibbous, 83% of the Moon is Illuminated
Mar 4
Waxing Gibbous
Mar 8
Full
Mar 14
Last Quarter
Mar 22
New
Mar 30
First Quarter

Hourly Weather History & Observations

Time (EST) Temp. Windchill Dew Point Humidity Pressure Visibility Wind Dir Wind Speed Gust Speed Precip Events Conditions
12:54 AM 46.0 °F 44.8 °F 25.0 °F 44% 29.71 in 10.0 mi Variable 3.5 mph - N/A   Overcast
1:54 AM 43.0 °F - 28.0 °F 56% 29.73 in 10.0 mi Calm Calm - N/A   Overcast
2:54 AM 45.0 °F 41.8 °F 26.1 °F 48% 29.70 in 10.0 mi NNW 5.8 mph - N/A   Overcast
3:54 AM 44.1 °F 42.5 °F 26.1 °F 49% 29.72 in 10.0 mi WNW 3.5 mph - N/A   Overcast
4:54 AM 43.0 °F - 26.1 °F 51% 29.73 in 10.0 mi Calm Calm - N/A   Overcast
5:54 AM 42.1 °F 39.2 °F 26.1 °F 53% 29.73 in 10.0 mi NW 4.6 mph - N/A   Overcast
6:54 AM 41.0 °F 38.0 °F 25.0 °F 53% 29.73 in 10.0 mi NW 4.6 mph - N/A   Mostly Cloudy
7:54 AM 41.0 °F 37.1 °F 23.0 °F 49% 29.74 in 10.0 mi NW 5.8 mph - N/A   Mostly Cloudy
8:54 AM 41.0 °F 35.2 °F 23.0 °F 49% 29.75 in 10.0 mi WNW 9.2 mph - N/A   Mostly Cloudy
9:54 AM 43.0 °F 34.2 °F 21.9 °F 43% 29.74 in 10.0 mi WNW 20.7 mph 26.5 mph N/A   Mostly Cloudy
10:54 AM 44.1 °F 38.6 °F 21.0 °F 40% 29.73 in 10.0 mi WNW 10.4 mph 25.3 mph N/A   Mostly Cloudy
11:54 AM 45.0 °F 38.2 °F 19.9 °F 37% 29.72 in 10.0 mi NW 15.0 mph 24.2 mph N/A   Mostly Cloudy
12:54 PM 46.0 °F 39.9 °F 19.9 °F 35% 29.69 in 10.0 mi NW 13.8 mph 20.7 mph N/A   Mostly Cloudy
1:54 PM 44.1 °F 37.1 °F 19.9 °F 38% 29.68 in 10.0 mi WNW 15.0 mph 21.9 mph N/A   Mostly Cloudy
2:54 PM 46.0 °F 39.6 °F 21.0 °F 37% 29.70 in 10.0 mi West 15.0 mph 19.6 mph N/A   Mostly Cloudy
3:52 PM 42.8 °F 35.1 °F 21.2 °F 42% 29.70 in 10.0 mi WNW 16.1 mph 24.2 mph N/A   Mostly Cloudy
3:54 PM 43.0 °F 35.7 °F 21.0 °F 42% 29.70 in 10.0 mi WNW 15.0 mph 24.2 mph N/A   Mostly Cloudy
4:54 PM 43.0 °F 35.4 °F 19.9 °F 40% 29.73 in 10.0 mi West 16.1 mph 26.5 mph N/A   Scattered Clouds
5:54 PM 41.0 °F 33.9 °F 21.0 °F 45% 29.75 in 10.0 mi WNW 12.7 mph - N/A   Mostly Cloudy
6:54 PM 39.0 °F 31.0 °F 21.0 °F 49% 29.79 in 10.0 mi West 13.8 mph - N/A   Scattered Clouds
7:54 PM 37.9 °F 30.9 °F 21.0 °F 51% 29.81 in 10.0 mi West 10.4 mph - N/A   Partly Cloudy
8:54 PM 37.0 °F 31.6 °F 19.9 °F 50% 29.83 in 10.0 mi West 6.9 mph - N/A   Partly Cloudy
9:54 PM 37.0 °F 29.8 °F 19.9 °F 50% 29.85 in 10.0 mi West 10.4 mph - N/A   Partly Cloudy
10:54 PM 36.0 °F 29.6 °F 19.9 °F 52% 29.86 in 10.0 mi West 8.1 mph - N/A   Clear
11:54 PM 35.1 °F 28.6 °F 19.9 °F 54% 29.88 in 10.0 mi West 8.1 mph - N/A   Clear